Hourly Data Report for June 30, 2012

All times are specified in Local Standard Time (LST). Add 1 hour to adjust for Daylight Saving Time where and when it is observed.

MONCTON INTL A
NEW BRUNSWICK

46°06'44.000" N
64°40'43.000" W
70.70 m
8103201
71705
YQM

Download Data

Hourly Data (June 2012)
Hourly Data Report for June 30, 2012
Temp Definition
°C
Dew Point Temp Definition
°C
Rel Hum Definition
%
Wind Dir Definition
10's deg

Wind Spd Definition
km/h
Visibility Definition
km
Stn Press Definition
kPa
Hmdx Definition


Wind Chill Definition


Weather Definition


TIME
00:00 Legend Double Dagger 17.6 16.3 92 18 13 10.0 99.13     Rain Showers
01:00 Legend Double Dagger 17.8 16.2 90 18 19 10.0 99.10     LegendNANA
02:00 Legend Double Dagger 16.2 15.6 96 18 6 10.0 99.10     Mainly Clear
03:00 Legend Double Dagger 15.7 15.2 97 17 12 10.0 99.09     LegendNANA
04:00 Legend Double Dagger 15.5 15.2 98 20 12 9.7 99.07     Fog
05:00 Legend Double Dagger 15.4 15.1 98 19 12 0.8 99.09     Fog
06:00 Legend Double Dagger 16.1 15.8 98 26 12 3.2 99.24     Fog
07:00 Legend Double Dagger 16.4 16.2 99 23 15 1.2 99.27     Fog
08:00 Legend Double Dagger 18.0 17.0 94 17 12 6.4 99.26     Fog
09:00 Legend Double Dagger 20.2 18.2 88 26 11 10.0 99.29 26   LegendNANA
10:00 Legend Double Dagger 22.8 19.0 79 25 18 10.0 99.31 30   LegendNANA
11:00 Legend Double Dagger 24.6 19.3 72 23 14 10.0 99.27 32   Mainly Clear
12:00 Legend Double Dagger 26.1 19.4 66 22 11 10.0 99.24 33   LegendNANA
13:00 Legend Double Dagger 27.2 18.9 60 21 15 10.0 99.21 34   LegendNANA
14:00 Legend Double Dagger 28.8 17.6 50 24 22 10.0 99.16 35   Mainly Clear
15:00 Legend Double Dagger 29.1 17.8 50 19 15 10.0 99.15 35   LegendNANA
16:00 Legend Double Dagger 30.4 16.3 42 24 28 10.0 99.13 35   LegendNANA
17:00 Legend Double Dagger 28.8 16.3 46 23 18 10.0 99.14 34   Mostly Cloudy
18:00 Legend Double Dagger 24.7 18.3 67 29 5 10.0 99.19 31   LegendNANA
19:00 Legend Double Dagger 24.9 16.2 58 24 21 10.0 99.30 30   LegendNANA
20:00 Legend Double Dagger 23.2 16.8 67 22 11 10.0 99.32 28   Rain Showers
21:00 Legend Double Dagger 21.2 17.3 78 13 13 10.0 99.37 27   LegendNANA
22:00 Legend Double Dagger 19.8 17.8 88   0 10.0 99.47     Rain Showers
23:00 Legend Double Dagger 19.8 16.7 82 18 15 10.0 99.39     Mostly Cloudy

Notes on Data Quality.

Legend

  • E = Estimated
  • M = Missing
  • NA = Not Available
  • ‡ = Partner data that is not subject to review by the National Climate Archives
Date modified: